Find Kuiper-00191

NORAD ID: 67143 Int'l Des: 2025-301 Owner: KUIP Country: US Constellation: amazon-leo operational
LEOCIRCULARSTARLINK_TYPE

当前视图

正在加载3D地球...

About Kuiper-00191

Kuiper-00191 (NORAD 67143) is a amazon-leo constellation satellite launched Dec 16, 2025 by KUIP of US. It operates in LEO, CIRCULAR, STARLINK_TYPE orbit with a mass of 490.00 kg.

关于 Kuiper-00191

正在加载描述...

即将过境

Passes for default location (London). Set your location on the main map for personalized predictions.

高度历史

Loading altitude history...

两行轨道根数

1 67143U 25301L 26170.85732993 .00002948 00000-0 41557-3 0 9992
2 67143 51.9018 341.3620 0000648 98.6896 261.4140 14.79929414 28783
Epoch: Jun 19, 2026 • Age: 3 hours

当前状态

高度 629.5 km
速度 7.55 km/s
星下点 16.10°N, 86.9°E
发射日期 Dec 16, 2025
运行时间 0.5 years
类型 internet

技术详情

分类 Payload
质量 490.00 kg
干质量 490.00 kg
总质量 490.00 kg
长度 1.80 m
直径 0.70 m
跨度 5.00 m
形状 Box + 2 pan
制造商 KUIP
平台类型 Kuiper
阶段状态 In Orbit
所有者/国家 KUIP/US

Most Searched